GGSE 3

Satellite information

Favourite Embed

Satellite Type and Status

PAYLOADIN ORBIT

Key statistics

Satellite GGSE 3 at a glance.

Uptime

22033

Days in orbit

Revolutions

≈ 14.0

Per day

Orbit

LEO

Low Earth Orbit

Inclination

70.1

Latest

Satellite identification and parameters

Extended collection of information and parameters for GGSE 3.

Object identification

Identified? True

Debris? False

Object name: GGSE 3

International designator: 1965-016C

Object number (NORAD): 1292

Object ID (CCSDS): 1292

Country: UNITED STATES OF AMERICA (US)

Current information (Y/N): Y

RCS size: MEDIUM

Orbital parameters

Period: 102.752 minutes

Inclination: 70.0782 deg

SMA: 7266.96 km

Apoapsis: 901.89 km

Periapsis: 875.76 km

RAAN: 338.8651 deg

Eccentricy: 0.0017979

Argument of periapsis: 45.3489 deg

Mean anomaly: 314.9082 deg

Mean motion: 14.01437092 rev/day

Mean motion (dot): 0.00000071 rev/day2

B* drag term: 0.000082182 1/REarth

Two-line elements (TLE)

Creation date: July 4, 2025, 6:39 p.m.

Reference frame: TEME

Reference center: EARTH

Epoch: July 4, 2025, 1:56 p.m. UTC

TLE line 0: 0 GGSE 3

TLE line 1: 1 01292U 65016C 25185.58087005 .00000071 00000-0 82182-4 0 9999

TLE line 2: 2 01292 70.0782 338.8651 0017979 45.3489 314.9082 14.01437092 75864

Live tracking on map

Real-time ground track for satellite GGSE 3.

In-orbit conjunctions

A list of the most updated potential collisions computed for object GGSE 3.

Target Orbit TCA Probability of collision Miss distance Type
SL-14 DEB LEO 2025-03-21 03:45:54 0.0002196244 872.0 (m) DEBRIS
OV1-4 R/B SSO 2024-11-05 07:40:48 0.002332664 122.0 (m) ROCKET BODY
METEOR 1-19 LEO 2024-11-01 14:55:15 0.0007875719 344.0 (m) PAYLOAD
CZ-6A DEB SSO 2024-10-16 10:11:48 0.0001087348 849.0 (m) DEBRIS
FENGYUN 1C DEB SSO 2024-10-07 04:31:00 0.0002444307 102.0 (m) DEBRIS

Associated space launch

Poppy was the follow-on ELINT system, which succeeded the Grab ELINT satellite system.

GGSE 3 was lifted into orbit during the mission ‘Thor SLV-2 Agena D | Poppy 6A,B,C,D’, on board a Thor SLV-2 Agena D space rocket.

The launch took place on March 9, 1965, 6:29 p.m. from Space Launch Complex 2W.

For more information about the launch, click the button.

Launch to space Thor SLV-2 Agena D | Poppy 6A,B,C,D
Thor SLV-2 Agena D | Poppy 6A,B,C,D

Agency: N/A

Status: Launch Successful

Launch date: March 9, 1965, 6:29 p.m. UTC

Rocket: Thor SLV-2 Agena D

Launch pad: Space Launch Complex 2W

Location: Vandenberg SFB, CA, USA

...

Latest news about this satellite

There are no fresh news available about this satellite. Check back as we update our databases every day.


Newsletter sign-up

Weekly statistics, charts and insights to help you stay on top of the space industry.